Simultaneous Nadir Overpasses (SNOs) Predictions

Prediction of SNOs between NPP and PACE Satellite Orbit:

Table of predicted SNOs for the next 14.0 days since TLE Epoch: 3/8/2025
Index Date (NPP) Time (NPP) Lat,Lon (NPP) SZA (NPP ) Date (PACE) Time (PACE) Lat,Lon (PACE) SZA (PACE ) Distance(km) Time Diff (sec)
1 03/09/2025 14:38:45 -79.88, 102.65 93.54 03/09/2025 14:38:59 -79.88, 102.67 93.55 0.50 14
2 03/11/2025 19:55:51 79.80,-155.83 85.43 03/11/2025 19:55:40 79.81,-155.98 85.46 3.15 11
3 03/14/2025 00:22:19 79.95, 136.12 84.84 03/14/2025 00:23:15 79.94, 136.09 84.81 0.64 56
4 03/14/2025 01:12:59 -79.82, -55.32 95.42 03/14/2025 01:12:22 -79.81, -55.22 95.42 2.15 37
5 03/16/2025 05:39:26 -79.94,-123.11 96.07 03/16/2025 05:39:56 -79.94,-123.05 96.09 1.11 30
6 03/16/2025 06:30:04 79.71, 46.38 83.50 03/16/2025 06:29:01 79.72, 46.35 83.54 0.78 63
7 03/18/2025 10:56:32 79.87, -21.73 82.92 03/18/2025 10:56:35 79.87, -21.64 82.90 1.90 3
8 03/20/2025 15:22:59 80.00, -89.63 82.29 03/20/2025 15:24:08 80.00, -89.56 82.25 1.42 69



Historial Predications of SNOs between NPP and PACE
